SM4IVE-5 Weather Reports


Display with metric or nautical units.
time (UTC)temp
F
wind
direction
speed
MPH
gust
MPH
rain 1hr
in
rain 24hr
in
rain mn
in
humidity
%
barometer
mb
20260903230824 45 150 1.0 2.0 0.00 0.00 0.00 90 1002.8
20260903230352 45 150 1.0 2.0 0.00 0.00 0.00 90 1002.9
20260903225835 45 150 2.0 2.0 0.00 0.00 0.00 90 1003.0
20260903225328 45 150 1.0 1.0 0.00 0.00 0.00 90 1003.0
20260903224828 46 150 0.0 1.0 0.00 0.00 0.00 89 1003.0
20260903224329 46 150 0.0 1.0 0.00 0.00 0.00 89 1003.1
20260903223838 46 150 0.0 1.0 0.00 0.00 0.00 89 1003.1
20260903223327 46 150 0.0 2.0 0.00 0.00 0.00 89 1003.2
20260903222828 46 150 0.0 2.0 0.00 0.00 0.00 89 1003.3
20260903222329 46 150 1.0 2.0 0.00 0.00 0.00 88 1003.3
20260903221829 46 150 0.0 2.0 0.00 0.00 0.00 88 1003.3
20260903221331 47 150 1.0 2.0 0.00 0.00 0.00 88 1003.4
20260903220847 47 150 0.0 2.0 0.00 0.00 0.00 88 1003.3
20260903220327 47 150 0.0 0.0 0.00 0.00 0.00 87 1003.3
20260903215836 47 150 0.0 0.0 0.00 0.00 0.00 87 1003.4
20260903215329 47 150 0.0 0.0 0.00 0.00 0.00 87 1003.4
20260903214846 47 150 0.0 2.0 0.00 0.00 0.00 87 1003.4
20260903214327 47 150 1.0 2.0 0.00 0.00 0.00 88 1003.5
20260903213847 47 150 1.0 2.0 0.00 0.00 0.00 88 1003.5
20260903213347 47 150 0.0 2.0 0.00 0.00 0.00 87 1003.6
20260903212826 47 150 1.0 2.0 0.00 0.00 0.00 88 1003.6
20260903212336 47 150 0.0 2.0 0.00 0.00 0.00 88 1003.6
20260903211824 47 150 1.0 2.0 0.00 0.00 0.00 88 1003.6
20260903211345 47 150 1.0 3.0 0.00 0.00 0.00 88 1003.6
20260903210825 47 150 1.0 3.0 0.00 0.00 0.00 88 1003.6
20260903210326 47 150 1.0 3.0 0.00 0.00 0.00 88 1003.7
20260903205827 47 150 1.0 3.0 0.00 0.00 0.00 88 1003.6
20260903205356 48 245 1.0 2.0 0.00 0.00 0.00 88 1003.6
20260903204843 48 246 1.0 2.0 0.00 0.00 0.00 88 1003.5
20260903204325 48 246 1.0 2.0 0.00 0.00 0.00 88 1003.6
20260903203825 48 245 1.0 2.0 0.00 0.00 0.00 88 1003.6
20260903203326 48 246 1.0 2.0 0.00 0.00 0.00 87 1003.6
20260903202826 48 245 1.0 2.0 0.00 0.00 0.00 87 1003.6
20260903202327 48 245 0.0 2.0 0.00 0.00 0.00 87 1003.6
20260903201827 48 246 1.0 2.0 0.00 0.00 0.00 87 1003.6
20260903201349 48 246 1.0 2.0 0.00 0.00 0.00 87 1003.7
20260903200829 48 245 1.0 2.0 0.00 0.00 0.00 87 1003.7
20260903200329 48 246 1.0 2.0 0.00 0.00 0.00 86 1003.8
20260903195831 48 245 1.0 3.0 0.00 0.00 0.00 86 1003.8
20260903195331 48 246 1.0 3.0 0.00 0.00 0.00 85 1003.9
20260903194831 49 246 1.0 2.0 0.00 0.00 0.00 84 1003.8
20260903194332 49 245 1.0 2.0 0.00 0.00 0.00 84 1003.8
20260903193900 49 246 0.0 0.0 0.00 0.00 0.00 83 1003.9
20260903193329 50 246 0.0 0.0 0.00 0.00 0.00 83 1004.0
20260903192829 50 245 0.0 0.0 0.00 0.00 0.00 82 1004.0
20260903192329 50 245 0.0 1.0 0.00 0.00 0.00 82 1004.1
20260903191850 51 246 1.0 2.0 0.00 0.00 0.00 81 1004.1
20260903191330 51 246 1.0 2.0 0.00 0.00 0.00 79 1004.2
20260903190830 52 245 1.0 2.0 0.00 0.00 0.00 78 1004.2
20260903190330 52 246 1.0 2.0 0.00 0.00 0.00 77 1004.2
20260903185830 53 246 1.0 2.0 0.00 0.00 0.00 75 1004.3
20260903185328 53 245 1.0 2.0 0.00 0.00 0.00 73 1004.3
20260903184829 54 245 1.0 2.0 0.00 0.00 0.00 72 1004.3
20260903184329 54 246 1.0 2.0 0.00 0.00 0.00 71 1004.4
20260903183830 54 246 0.0 1.0 0.00 0.00 0.00 70 1004.3
20260903183330 55 245 0.0 1.0 0.00 0.00 0.00 69 1004.4
20260903182831 55 245 0.0 2.0 0.00 0.00 0.00 68 1004.4
20260903182331 56 246 1.0 2.0 0.00 0.00 0.00 68 1004.4
20260903181832 56 246 0.0 2.0 0.00 0.00 0.00 66 1004.4
20260903181339 57 245 1.0 3.0 0.00 0.00 0.00 65 1004.5
20260903180829 57 246 1.0 3.0 0.00 0.00 0.00 63 1004.5
20260903180330 58 246 0.0 2.0 0.00 0.00 0.00 63 1004.5
20260903175829 58 249 1.0 2.0 0.00 0.00 0.00 62 1004.5
20260903175329 59 250 1.0 2.0 0.00 0.00 0.00 61 1004.6
20260903174829 59 250 0.0 3.0 0.00 0.00 0.00 60 1004.6
20260903174330 59 250 0.0 4.0 0.00 0.00 0.00 61 1004.6
20260903173831 59 286 1.0 4.0 0.00 0.00 0.00 58 1004.6
20260903173339 60 288 1.0 5.0 0.00 0.00 0.00 59 1004.6
20260903172829 60 287 3.0 5.0 0.00 0.00 0.00 58 1004.5
20260903172329 60 288 1.0 5.0 0.00 0.00 0.00 59 1004.6
20260903171838 60 292 2.0 4.0 0.00 0.00 0.00 58 1004.6
20260903171328 61 292 2.0 4.0 0.00 0.00 0.00 57 1004.7
20260903170828 61 292 1.0 3.0 0.00 0.00 0.00 59 1004.7
20260903170329 61 292 1.0 3.0 0.00 0.00 0.00 59 1004.7
20260903165832 61 292 1.0 3.0 0.00 0.00 0.00 57 1004.7
20260903165332 62 292 0.0 2.0 0.00 0.00 0.00 57 1004.7
20260903164840 62 292 1.0 2.0 0.00 0.00 0.00 56 1004.7
20260903164326 62 292 0.0 4.0 0.00 0.00 0.00 56 1004.7
20260903163853 62 292 2.0 5.0 0.00 0.00 0.00 56 1004.7
20260903163400 63 306 1.0 5.0 0.00 0.00 0.00 55 1004.7
20260903162829 63 307 2.0 4.0 0.00 0.00 0.00 55 1004.7
20260903162350 63 304 1.0 4.0 0.00 0.00 0.00 55 1004.7
20260903161830 64 288 2.0 5.0 0.00 0.00 0.00 56 1004.7
20260903161330 64 304 2.0 7.0 0.00 0.00 0.00 55 1004.7
20260903160851 65 279 3.0 7.0 0.00 0.00 0.00 54 1004.7
20260903160330 65 309 2.0 8.0 0.00 0.00 0.00 55 1004.7
20260903155330 65 290 1.0 10.0 0.00 0.00 0.00 54 1004.7
20260903154859 66 253 4.0 10.0 0.00 0.00 0.00 51 1004.9
20260903154327 66 318 2.0 8.0 0.00 0.00 0.00 51 1005.0
20260903153836 66 290 3.0 9.0 0.00 0.00 0.00 50 1005.0
20260903153324 66 286 2.0 10.0 0.00 0.00 0.00 49 1005.0
20260903152833 66 298 3.0 10.0 0.00 0.00 0.00 49 1005.1
20260903152339 66 269 3.0 10.0 0.00 0.00 0.00 48 1005.2
20260903151825 66 292 2.0 7.0 0.00 0.00 0.00 48 1005.2
20260903151332 66 241 2.0 7.0 0.00 0.00 0.00 47 1005.2
20260903150830 67 272 2.0 8.0 0.00 0.00 0.00 46 1005.2
20260903150358 67 296 3.0 8.0 0.00 0.00 0.00 46 1005.3
20260903145824 67 269 3.0 9.0 0.00 0.00 0.00 45 1005.3
20260903145352 67 304 3.0 9.0 0.00 0.00 0.00 45 1005.3
20260903144839 67 276 4.0 11.0 0.00 0.00 0.00 46 1005.5
20260903144328 67 334 2.0 8.0 0.00 0.00 0.00 49 1005.5
20260903143829 67 248 2.0 10.0 0.00 0.00 0.00 48 1005.5
20260903143353 66 302 3.0 10.0 0.00 0.00 0.00 49 1005.5
20260903142824 66 286 5.0 10.0 0.00 0.00 0.00 50 1005.6
20260903142348 66 309 3.0 8.0 0.00 0.00 0.00 53 1005.6
20260903141827 66 276 2.0 11.0 0.00 0.00 0.00 54 1005.7
20260903141349 66 317 3.0 11.0 0.00 0.00 0.00 54 1005.7
20260903140856 66 302 3.0 11.0 0.00 0.00 0.00 55 1005.8
20260903140324 66 280 3.0 10.0 0.00 0.00 0.00 54 1005.8
20260903135825 66 306 4.0 10.0 0.00 0.00 0.00 53 1005.9
20260903135325 66 241 2.0 9.0 0.00 0.00 0.00 53 1006.0
20260903134825 66 281 3.0 11.0 0.00 0.00 0.00 54 1006.1
20260903134325 66 307 6.0 12.0 0.00 0.00 0.00 53 1006.0
20260903133826 66 290 5.0 12.0 0.00 0.00 0.00 51 1006.0
20260903133326 66 277 2.0 10.0 0.00 0.00 0.00 54 1006.1
20260903132834 65 281 5.0 11.0 0.00 0.00 0.00 53 1006.1
20260903132324 65 323 6.0 12.0 0.00 0.00 0.00 53 1006.1
20260903131825 66 323 6.0 13.0 0.00 0.00 0.00 52 1006.2
20260903131327 66 287 4.0 12.0 0.00 0.00 0.00 55 1006.1
20260903130835 66 288 4.0 12.0 0.00 0.00 0.00 54 1006.1
20260903130343 66 296 5.0 11.0 0.00 0.00 0.00 54 1006.1
20260903125826 65 286 3.0 14.0 0.00 0.00 0.00 55 1006.1
20260903125327 65 242 3.0 14.0 0.00 0.00 0.00 57 1006.1
20260903124827 64 304 5.0 12.0 0.00 0.00 0.00 57 1006.1
20260903124336 64 284 4.0 12.0 0.00 0.00 0.00 59 1006.2
20260903123825 65 268 2.0 13.0 0.00 0.00 0.00 57 1006.2
20260903123327 65 315 6.0 13.0 0.00 0.00 0.00 55 1006.2
20260903122835 66 288 5.0 16.0 0.00 0.00 0.00 56 1006.2
20260903122343 66 302 7.0 16.0 0.00 0.00 0.00 54 1006.2
20260903121850 65 273 4.0 15.0 0.00 0.00 0.00 54 1006.1
20260903121336 65 300 5.0 15.0 0.00 0.00 0.00 56 1006.1
20260903120825 65 287 6.0 13.0 0.00 0.00 0.00 56 1006.2
20260903120325 65 268 6.0 12.0 0.00 0.00 0.00 55 1006.2
20260903115846 66 281 4.0 12.0 0.00 0.00 0.00 55 1006.3
20260903115327 66 325 4.0 12.0 0.00 0.00 0.00 55 1006.2
20260903114827 66 267 5.0 13.0 0.00 0.00 0.00 54 1006.2
20260903114329 66 288 4.0 13.0 0.00 0.00 0.00 55 1006.2
20260903113857 66 287 6.0 17.0 0.00 0.00 0.00 55 1006.2
20260903113324 66 268 6.0 17.0 0.00 0.00 0.00 53 1006.2
20260903112825 66 257 4.0 9.0 0.00 0.00 0.00 55 1006.4
20260903112351 66 72 4.0 11.0 0.00 0.00 0.00 57 1006.3
20260903111830 66 261 6.0 11.0 0.00 0.00 0.00 57 1006.3
20260903111331 65 262 3.0 11.0 0.00 0.00 0.00 59 1006.3
20260903110831 66 316 5.0 11.0 0.00 0.00 0.00 56 1006.4
20260903110330 66 310 4.0 10.0 0.00 0.00 0.00 57 1006.4
20260903105831 66 96 3.0 10.0 0.00 0.00 0.00 56 1006.4
20260903105400 66 235 2.0 12.0 0.00 0.00 0.00 57 1006.4
20260903104827 66 273 3.0 10.0 0.00 0.00 0.00 58 1006.5
20260903104330 65 292 2.0 8.0 0.00 0.00 0.00 60 1006.4
20260903103830 65 254 1.0 8.0 0.00 0.00 0.00 60 1006.5
20260903103330 65 280 2.0 9.0 0.00 0.00 0.00 59 1006.4
20260903102831 64 298 4.0 11.0 0.00 0.00 0.00 61 1006.5
20260903102331 64 278 6.0 11.0 0.00 0.00 0.00 59 1006.6
20260903101832 65 286 5.0 14.0 0.00 0.00 0.00 59 1006.6
20260903101332 65 311 7.0 14.0 0.00 0.00 0.00 58 1006.7
20260903100901 65 190 2.0 9.0 0.00 0.00 0.00 60 1006.7
20260903100327 65 296 4.0 10.0 0.00 0.00 0.00 60 1006.7
20260903095830 64 311 4.0 11.0 0.00 0.00 0.00 61 1006.8
20260903095330 65 336 4.0 11.0 0.00 0.00 0.00 61 1006.7
20260903094851 64 309 3.0 12.0 0.00 0.00 0.00 61 1006.8
20260903094331 64 306 4.0 12.0 0.00 0.00 0.00 61 1006.8
20260903093851 63 276 6.0 12.0 0.00 0.00 0.00 61 1006.8
20260903093339 63 329 4.0 11.0 0.00 0.00 0.00 62 1006.9
20260903092847 63 284 5.0 13.0 0.00 0.00 0.00 63 1006.8
20260903092353 62 294 6.0 13.0 0.00 0.00 0.00 62 1006.8
20260903091831 62 317 7.0 15.0 0.00 0.00 0.00 63 1006.7
20260903091331 62 290 6.0 15.0 0.00 0.00 0.00 64 1006.8
20260903090839 62 301 6.0 12.0 0.00 0.00 0.00 63 1006.8
20260903090325 62 261 5.0 12.0 0.00 0.00 0.00 66 1006.8
20260903085851 62 281 3.0 8.0 0.00 0.00 0.00 68 1006.9
20260903085346 61 320 3.0 12.0 0.00 0.00 0.00 69 1006.8
20260903084826 61 301 3.0 12.0 0.00 0.00 0.00 69 1006.9
20260903084328 61 323 4.0 13.0 0.00 0.00 0.00 70 1006.9
20260903083846 60 278 4.0 12.0 0.00 0.00 0.00 70 1007.0
20260903083332 60 295 6.0 13.0 0.00 0.00 0.00 70 1006.8
20260903082859 60 242 6.0 15.0 0.00 0.00 0.00 70 1006.9
20260903082325 60 257 7.0 15.0 0.00 0.00 0.00 70 1006.9
20260903081850 60 292 7.0 14.0 0.00 0.00 0.00 70 1006.9
20260903081336 60 280 4.0 14.0 0.00 0.00 0.00 71 1006.9
20260903080902 59 290 4.0 14.0 0.00 0.00 0.00 71 1007.1
20260903080328 59 302 3.0 13.0 0.00 0.00 0.00 72 1006.8
20260903075848 59 309 5.0 13.0 0.00 0.00 0.00 73 1006.7
20260903075328 58 261 5.0 16.0 0.00 0.00 0.00 72 1006.7
20260903074857 58 300 5.0 15.0 0.00 0.00 0.00 73 1006.7
20260903074324 58 303 7.0 17.0 0.00 0.00 0.00 73 1006.7
20260903073831 58 298 8.0 17.0 0.00 0.00 0.00 74 1006.7
20260903073332 58 294 7.0 16.0 0.00 0.00 0.00 74 1006.6
20260903072832 58 360 4.0 11.0 0.00 0.00 0.00 75 1006.5
20260903072340 57 110 3.0 17.0 0.00 0.00 0.00 75 1006.6
20260903071829 57 306 5.0 16.0 0.00 0.00 0.00 75 1006.6
20260903071329 57 319 7.0 16.0 0.00 0.00 0.00 74 1006.6
20260903070837 57 283 3.0 10.0 0.00 0.00 0.00 76 1006.7
20260903070325 57 286 3.0 11.0 0.00 0.00 0.00 77 1006.7
20260903065832 56 292 3.0 14.0 0.00 0.00 0.00 77 1006.7
20260903065332 56 317 6.0 14.0 0.00 0.00 0.00 76 1006.7
20260903064832 56 284 1.0 12.0 0.00 0.00 0.00 78 1006.8
20260903064332 56 290 6.0 12.0 0.00 0.00 0.00 77 1006.8
20260903063831 56 159 2.0 8.0 0.00 0.00 0.00 78 1006.7
20260903063332 55 318 2.0 8.0 0.00 0.00 0.00 79 1006.8
20260903062831 55 286 1.0 7.0 0.00 0.00 0.00 80 1006.8
20260903062331 55 312 2.0 6.0 0.00 0.00 0.00 80 1006.9
20260903061851 55 315 1.0 7.0 0.00 0.00 0.00 81 1006.8
20260903061330 54 198 2.0 7.0 0.00 0.00 0.00 81 1006.9
20260903060829 54 214 1.0 3.0 0.00 0.00 0.00 82 1006.8
20260903060330 54 163 1.0 6.0 0.00 0.00 0.00 82 1006.8
20260903055829 54 298 2.0 12.0 0.00 0.00 0.00 82 1006.8
20260903055330 53 186 3.0 12.0 0.00 0.00 0.00 82 1006.9
20260903054829 53 196 2.0 4.0 0.00 0.00 0.00 83 1006.9
20260903054350 53 217 1.0 7.0 0.00 0.00 0.00 83 1007.0
20260903053829 53 194 2.0 7.0 0.00 0.00 0.00 84 1006.9
20260903053329 53 200 1.0 6.0 0.00 0.00 0.00 84 1007.0
20260903052831 53 175 2.0 6.0 0.00 0.00 0.00 84 1006.9
20260903052330 52 197 2.0 6.0 0.00 0.00 0.00 85 1007.0
20260903051830 52 156 2.0 10.0 0.00 0.00 0.00 85 1007.1
20260903051332 52 142 1.0 6.0 0.00 0.00 0.00 86 1007.1
20260903050831 52 190 3.0 7.0 0.00 0.00 0.00 86 1007.2
20260903050356 52 192 2.0 7.0 0.00 0.00 0.00 86 1007.3
20260903045828 51 195 2.0 7.0 0.00 0.00 0.00 86 1007.3
20260903045324 51 186 3.0 7.0 0.00 0.00 0.00 87 1007.3
20260903044825 51 319 2.0 8.0 0.00 0.00 0.00 87 1007.3
20260903044326 51 167 2.0 8.0 0.00 0.00 0.00 87 1007.3
20260903043835 52 237 1.0 6.0 0.00 0.00 0.00 87 1007.3
20260903043328 52 286 1.0 8.0 0.00 0.00 0.00 87 1007.3
20260903042829 52 214 2.0 8.0 0.00 0.00 0.00 87 1007.1
20260903042338 52 246 2.0 6.0 0.00 0.00 0.00 87 1007.2
20260903041827 52 183 1.0 4.0 0.00 0.00 0.00 87 1007.2
20260903041328 52 276 1.0 4.0 0.00 0.00 0.00 87 1007.2
20260903040828 52 208 1.0 7.0 0.00 0.00 0.00 87 1007.2
20260903040324 52 250 1.0 7.0 0.00 0.00 0.00 87 1007.2
20260903035826 52 256 2.0 6.0 0.00 0.00 0.00 87 1007.2
20260903035347 52 22 1.0 4.0 0.00 0.00 0.00 87 1007.3
20260903034827 52 301 1.0 7.0 0.00 0.00 0.00 87 1007.2
20260903034354 52 304 1.0 7.0 0.00 0.00 0.00 87 1007.2
20260903033843 52 153 2.0 6.0 0.00 0.00 0.00 87 1007.2
20260903033329 52 13 2.0 4.0 0.00 0.00 0.00 87 1007.2
20260903032836 52 312 1.0 7.0 0.00 0.00 0.00 87 1007.3
20260903032324 52 334 1.0 7.0 0.00 0.00 0.00 87 1007.2
20260903031825 52 280 1.0 5.0 0.00 0.00 0.00 88 1007.1
20260903031325 52 205 1.0 5.0 0.00 0.00 0.00 88 1007.2
20260903030825 52 340 2.0 5.0 0.00 0.00 0.00 88 1007.2
20260903030325 52 206 1.0 7.0 0.00 0.00 0.00 88 1007.1
20260903025853 52 303 2.0 9.0 0.00 0.00 0.00 88 1007.2
20260903025340 52 301 1.0 5.0 0.00 0.00 0.00 88 1007.3
20260903024847 52 299 1.0 6.0 0.00 0.00 0.00 88 1007.2
20260903024327 52 333 1.0 3.0 0.00 0.00 0.00 88 1007.2
20260903023835 52 326 1.0 5.0 0.00 0.00 0.00 88 1007.3
20260903023325 52 186 1.0 5.0 0.00 0.00 0.00 88 1007.3
20260903022826 52 24 1.0 7.0 0.00 0.00 0.00 88 1007.3
20260903022327 52 223 3.0 7.0 0.00 0.00 0.00 88 1007.3
20260903021848 52 271 1.0 5.0 0.00 0.00 0.00 88 1007.3
20260903021348 52 246 1.0 4.0 0.00 0.00 0.00 88 1007.3
20260903020827 52 236 1.0 5.0 0.00 0.00 0.00 87 1007.2
20260903020356 52 218 1.0 8.0 0.00 0.00 0.00 88 1007.3
20260903015824 53 217 1.0 7.0 0.00 0.00 0.00 88 1007.3
20260903015332 52 185 1.0 6.0 0.00 0.00 0.00 88 1007.2
20260903014828 52 314 2.0 6.0 0.00 0.00 0.00 88 1007.3
20260903014354 53 159 1.0 4.0 0.00 0.00 0.00 88 1007.4
20260903013840 53 318 0.0 5.0 0.00 0.00 0.00 87 1007.3
20260903013347 53 261 1.0 5.0 0.00 0.00 0.00 87 1007.4
20260903012836 53 220 1.0 5.0 0.00 0.00 0.00 87 1007.4
20260903012325 53 229 1.0 3.0 0.00 0.00 0.00 87 1007.4
20260903011853 53 227 1.0 6.0 0.00 0.00 0.00 87 1007.4
20260903011330 53 190 2.0 6.0 0.00 0.00 0.00 87 1007.4
20260903010851 53 182 1.0 5.0 0.00 0.00 0.00 87 1007.5
20260903010330 53 211 1.0 5.0 0.00 0.00 0.00 86 1007.5
20260903005851 53 224 2.0 5.0 0.00 0.00 0.00 86 1007.5
20260903005339 53 183 1.0 4.0 0.00 0.00 0.00 86 1007.6
20260903004828 53 199 1.0 5.0 0.00 0.00 0.00 86 1007.6
20260903004329 54 217 1.0 5.0 0.00 0.00 0.00 86 1007.6
20260903003830 54 196 2.0 5.0 0.00 0.00 0.00 86 1007.6
20260903003351 54 215 1.0 8.0 0.00 0.00 0.00 86 1007.7
20260903002830 54 281 2.0 8.0 0.00 0.00 0.00 86 1007.6
20260903002339 54 242 1.0 5.0 0.00 0.00 0.00 85 1007.6
20260903001828 54 142 1.0 5.0 0.00 0.00 0.00 85 1007.6
20260903001349 54 194 2.0 5.0 0.00 0.00 0.00 85 1007.6
20260903000828 54 199 1.0 9.0 0.00 0.00 0.00 85 1007.6
20260903000329 54 182 2.0 9.0 0.00 0.00 0.00 85 1007.7
20260902235850 54 204 1.0 6.0 0.00 0.00 0.00 85 1007.7
20260902235329 54 145 2.0 6.0 0.00 0.00 0.00 85 1007.8
20260902234829 54 171 1.0 6.0 0.00 0.00 0.00 84 1007.9
20260902234330 54 277 1.0 6.0 0.00 0.00 0.00 84 1007.9
20260902233830 54 203 1.0 6.0 0.00 0.00 0.00 84 1007.9
20260902233330 55 309 1.0 4.0 0.00 0.00 0.00 83 1007.9
20260902232831 55 173 1.0 7.0 0.00 0.00 0.00 83 1007.9
20260902232331 55 280 1.0 7.0 0.00 0.00 0.00 83 1007.9
20260902231831 55 209 2.0 5.0 0.00 0.00 0.00 83 1007.9
20260902231347 55 184 2.0 5.0 0.00 0.00 0.00 83 1007.9